Regional Weather Roundup
Issued by NWS New Orleans/Baton Rouge, LA

Home | Current Version | Previous Version | Graphics & Text | Print | Product List | Glossary On
Versions: 1 2 3 4 5 6 7 8 9 10 11 12 13 14 15 16 17 18 19 20 21 22 23 24 25 26 27 28 29 30 31 32 33 34 35 36 37 38 39 40 41 42 43 44 45 46 47 48 49 50
513
ASUS44 KLIX 011010
RWRLIX
NEW ORLEANS REGIONAL WEATHER ROUNDUP
NATIONAL WEATHER SERVICE NEW ORLEANS LA
500 AM CDT WED OCT 01 2014

NOTE: "FAIR" INDICATES FEW OR NO CLOUDS BELOW 12,000 FEET WITH NO
      SIGNIFICANT WEATHER AND/OR OBSTRUCTIONS TO VISIBILITY.
      SKY/WX - SKY CONDITION AND SIGNIFICANT WEATHER.
      TMP - AIR TEMPERATURE.     DP    - DEWPOINT TEMPERATURE.
      RH  - RELATIVE HUMIDITY.   PRES  - PRESSURE.
      HI  - HEAT INDEX.          WCI   - WIND CHILL INDEX.

*  THESE STATIONS ARE NOT NWS OR FAA STATIONS AND ARE NOT UNDER
   NWS QUALITY CONTROL.

LAZ038-040-048-061>063-065>067-069-011100-
SOUTHEAST LOUISIANA

CITY           SKY/WX    TMP DP  RH WIND       PRES   REMARKS
N.O. AUDUBON     N/A     76  75  98 MISG        N/A
N.O. INTL ARPT PTCLDY    75  72  90 E5        29.88R
N.O. LAKEFRONT CLEAR     76  72  87 SE5       29.88S
N.O. DOWNTOWN*   N/A     77  70  78 SE7       29.88S
SLIDELL        CLEAR     68  65  90 CALM      29.88S
BATON ROUGE    CLEAR     72  70  93 NE5       29.88R FOG
BOOTHVILLE     CLEAR     76  74  93 E5        29.88S
BELLE CHASSE   CLEAR     72  68  87 CALM      29.88R
BOGALUSA*      FOG       68  65  90 CALM      29.91S VSB 1/4
GALLIANO*      NOT AVBL
NEW ROADS*       N/A     73  72  98 E3        29.87S FOG
GONZALES*        N/A     72  72 100 CALM      29.87S FOG
HAMMOND*       CLEAR     72  68  88 CALM      29.90S
HOUMA*         PTCLDY   N/A N/A N/A CALM      29.86S HAZE
PORT FOURCHON* MOSUNNY   81  75  83 SE10G16   29.89S

$$

MSZ070-080>082-011100-
SOUTHERN MISSISSIPPI

CITY           SKY/WX    TMP DP  RH WIND       PRES   REMARKS
MCCOMB         CLOUDY    72  70  93 S6        29.90S FOG
GULFPORT       CLEAR     71  69  93 CALM      29.89R
BILOXI         CLEAR     71  71 100 E2        29.90R
PASCAGOULA     CLEAR     64  63  96 CALM      29.90S FOG

$$

COASTAL OBSERVATIONS
LAKE AND NEARSHORE STATIONS

STATION/POSITION TIME  TEMP    WIND        PRES    WAVE
                       AIR SEA DIR/SP/G            HT/PER
                 (UTC) (F)     (DEG/KT/KT) (MB)    (FT/S)
PASCAGOULA       1000   74      40/  5/  5 1011.9
WAVELAND YACHT   1000   78     160/  7/  8 1011.4
GRAND ISLE       1000   79 82  120/  5/  8 1012.1
SOUTHWEST PASS   1000   80 85  110/ 12/ 13 1011.9
NEW CANAL        1000   75 77   CALM  /  2 1012.0
SHELL BEACH      1000   77 76  120/  6/  7 1011.8

OFFSHORE STATIONS

STATION/POSITION TIME  TEMP    WIND        PRES    WAVE
                       AIR SEA DIR/SP/G            HT/PER
                 (UTC) (F)     (DEG/KT/KT) (MB)    (FT/S)
64 S DAUPHIN ISL 0853   79 82  130/  6/  8 1012.5    2/ 4

$$




USA.gov is the U.S. government's official web portal to all federal, state and local government web resources and services.